Regional Weather Roundup
Issued by NWS

Home | Current Version | Previous Version | Graphics & Text | Print | Product List | Glossary On
Versions: 1 2 3 4 5 6 7 8 9 10 11 12 13 14 15 16 17 18 19 20 21 22 23 24 25 26 27 28 29 30 31 32 33 34 35 36 37 38 39 40 41 42 43 44 45 46 47 48 49 50
000
ASUS43 KDTX 280701
RWRMI
MICHIGAN HOURLY REGIONAL WEATHER ROUNDUP
NATIONAL WEATHER SERVICE DETROIT/PONTIAC MI
200 AM EST FRI NOV 28 2014

NOTE: "FAIR" INDICATES FEW OR NO CLOUDS BELOW 12,000 FEET WITH NO
SIGNIFICANT WEATHER AND/OR OBSTRUCTION TO VISIBILITY.

MIZ047>049-052>055-059>063-066>070-074>076-081>083-280800-
SOUTHEAST LOWER MICHIGAN

CITY           SKY/WX    TMP DP  RH WIND       PRES   REMARKS
ADRIAN         PTCLDY    18  10  71 NW7       30.33S WCI   9
ALMA           CLEAR     15  10  80 CALM      30.32S
ANN ARBOR      PTCLDY    19   7  59 NW6       30.31R WCI  11
BAD AXE        CLOUDY    19  12  72 NW9       30.28R WCI   9
CARO           CLOUDY    21  10  63 W8        30.28S WCI  12
DETROIT CITY   CLOUDY    24   8  50 NW12      30.30S WCI  13
DETROIT        CLOUDY    22  10  60 W12       30.32R WCI  10
FLINT          CLEAR     17   9  70 W7        30.31R WCI   8
GROSSE ILE     CLOUDY    23  14  68 W7        30.30R WCI  15
HILLSDALE      PTCLDY    18  13  82 W3        30.30R
HOWELL         MOCLDY    18   7  64 NW6       30.31R WCI   9

CITY           SKY/WX    TMP DP  RH WIND       PRES   REMARKS
JACKSON        CLEAR     16   8  71 W6        30.32R WCI   7
LAMBERTVILLE   CLEAR     21  12  68 W3        30.34R
LANSING        CLOUDY    20   8  60 NW3       30.33R
LAPEER         CLOUDY    20   7  57 NW7       30.29R WCI  11
MASON          CLOUDY    20   9  61 N6        30.32R WCI  12
MONROE         CLEAR     19  12  73 W8        30.31R WCI   9
MT. CLEMENS    FRZ DRZL  22   9  56 NW10      30.27S WCI  12
PONTIAC        PTCLDY    18   6  59 NW9       30.28R WCI   7
PORT HOPE        N/A     19   7  59 W8G17     30.26R WCI   9
PORT HURON     CLOUDY    21  12  68 NW6       30.28S WCI  14
TRI CITIES     MOCLDY    19   9  65 W7        30.32R WCI  10
TROY           PTCLDY    23   4  45 NW8       30.32R WCI  14
SAGINAW HB     CLOUDY    21  10  63 W9        30.31R WCI  11
$$
MIZ043>046-050>051-056>058-064>065-071>073-077>080-280800-
SOUTHWEST LOWER MICHIGAN

CITY           SKY/WX    TMP DP  RH WIND       PRES   REMARKS
BATTLE CREEK   CLOUDY    21  10  62 CALM      30.32S
BENTON HARBOR  CLOUDY    24  13  62 W8        30.34F WCI  15
BIG RAPIDS     CLOUDY    17  15  90 CALM      30.29S
COLDWATER      CLOUDY    23  17  76 NW6       30.32S WCI  16
FREMONT        CLOUDY    18  14  86 CALM      30.32S
HOLLAND        FLURRIES  21  14  74 S3        30.35S
GRAND RAPIDS   CLOUDY    17  11  77 SW5       30.33S WCI  10
IONIA          FAIR      17  10  74 W5        30.32S WCI  10
KALAMAZOO      CLOUDY    21  16  81 CALM      30.33F
LUDINGTON      CLOUDY    19  14  81 CALM      30.33R
MARSHALL       MOCLDY    17   9  70 CALM      30.32S
MOUNT PLEASANT CLEAR     16  11  82 SW3       30.31R
MUSKEGON       FLURRIES  20  13  74 E5        30.34S WCI  13
SOUTH HAVEN    FLURRIES  23  19  87 E3        30.34S
$$
MIZ016>042-280800-
NORTHERN LOWER MICHIGAN

CITY           SKY/WX    TMP DP  RH WIND       PRES   REMARKS
ALPENA         CLOUDY    15   8  73 W9        30.26R WCI   3
BEAVER ISLAND  FLURRIES  19  11  71 W6        30.28S WCI  11
BELLAIRE       CLOUDY    18  15  89 CALM      30.29F
CADILLAC       FLURRIES  11   8  88 SW3       30.24S
CHARLEVOIX     FLURRIES  19  12  74 W9        30.30S WCI   8
FRANKFORT      CLOUDY    19  14  80 CALM      30.31S
GAYLORD        CLOUDY    13   9  84 W3        30.22S
GRAYLING       LGT SNOW  16  12  87 CALM      30.25S
HARBOR SPRINGS CLOUDY    18  10  70 NW5       30.26F WCI  11
HOUGHTON LAKE  CLOUDY    14  10  84 W6        30.26R WCI   5
MANISTEE       CLOUDY    19  12  73 CALM      30.32R
OSCODA         PTCLDY    11   6  80 W7        30.28R WCI   0
PELLSTON       CLOUDY    18   8  65 NW7       30.27S WCI   9
ROGERS CITY    LGT SNOW  17  13  85 W7        30.27R WCI   7
TRAVERSE CITY  CLOUDY    18  10  71 W5        30.29F WCI  11
$$
MIZ007>008-015-280800-
EASTERN UPPER MICHIGAN

CITY           SKY/WX    TMP DP  RH WIND       PRES   REMARKS
KINROSS        PTCLDY     0  -2  92 NE3       30.26S
MACKINAC ISLAN CLOUDY    16  12  84 NW5       30.25S WCI   9
NEWBERRY       CLOUDY     9   7  92 SW8       30.24S WCI  -4
S. S. MARIE    PTCLDY    -1  -7  75 CALM      30.30R
MUNISING         N/A     14   4  64 W9        30.28S WCI   2
$$
MIZ004>006-011>014-085-280800-
CENTRAL UPPER MICHIGAN

CITY           SKY/WX    TMP DP  RH WIND       PRES   REMARKS
MANISTIQUE     MOCLDY     8   3  80 W9        30.28S WCI  -6
ESCANABA       PTCLDY     3  -2  78 W5        30.30F WCI  -6
MENOMINEE      PTCLDY     0  -4  85 CALM      30.32S
SAWYER-GWINN   MOCLDY     0  -4  83 W5        30.24F WCI -10
$$
MIZ001>003-009>011-084-280800-
WESTERN UPPER MICHIGAN

CITY           SKY/WX    TMP DP  RH WIND       PRES   REMARKS
IRON MOUNTAIN  PTCLDY    -5  -9  83 CALM      30.25F
HOUGHTON       LGT SNOW   6   1  80 CALM      30.21F
COPPER HARBOR    N/A     13   7  77 SW7       30.25F WCI   3
IRONWOOD       CLOUDY    -2  -2 100 CALM      30.21F
$$

ABBREVIATIONS USED IN REMARKS
   TC - TEMPERATURE IN CELSIUS
  WCI - WIND CHILL INDEX
   HX - HEAT INDEX
  VSB - VISIBILITY




USA.gov is the U.S. government's official web portal to all federal, state and local government web resources and services.